Retour au catalogue

FENGYUN 1C DEB

ActifPO
NORAD 31555·DEBRIS·🇨🇳 China

Lancé May 10, 1999 depuis Taiyuan Satellite Launch Center

Loading…

Prochains Passages (prochaines 24 heures)

TLE

FraisSource: Space-Track

Époque: Sep 13, 2026, 04:28 UTC

1 31555U 99025BYW 26256.18644926  .00003571  00000-0  85705-3 0  9999
2 31555  99.1243 235.8917 0149767 100.7957 261.0131 14.47497646  5299

Suivez FENGYUN 1C DEB en temps réel avec AllMySat

Download on the App Store